Location: Newark
(35.2672°N, 80.7344°W)
Time: 15:20:08
(UTC+00:00)

Hubble Space Telescope - Visible Passes

Search period start: 15 December 2019 00:00
Search period end: 25 December 2019 00:00
Orbit: 536 x 540 km, 28.5° (Epoch: 14 December)

Date Brightness Start Highest point End Pass type
(mag) Time Alt. Az. Time Alt. Az. Time Alt. Az.
15 Dec 3.5 09:50:11 13° SSE 09:50:11 13° SSE 09:51:54 10° SE visible
15 Dec 2.6 11:26:55 10° SW 11:30:27 27° S 11:34:00 10° ESE visible
16 Dec 3.6 09:40:33 14° SE 09:40:33 14° SE 09:41:44 10° ESE visible
16 Dec 2.4 11:16:10 10° SW 11:19:47 29° S 11:23:25 10° ESE visible
17 Dec 3.8 09:30:48 12° SE 09:30:48 12° SE 09:31:22 10° ESE visible
17 Dec 2.2 11:06:09 14° SW 11:09:07 31° S 11:12:47 10° ESE visible
18 Dec 2.1 10:56:19 19° SW 10:58:28 31° S 11:02:10 10° ESE visible
19 Dec 2.1 10:46:26 25° SW 10:47:48 32° S 10:51:30 10° ESE visible
20 Dec 2.0 10:36:30 29° SSW 10:37:09 31° S 10:40:49 10° ESE visible
21 Dec 2.1 10:26:32 29° S 10:26:32 29° S 10:30:06 10° SE visible
22 Dec 2.4 10:16:34 26° S 10:16:34 26° S 10:19:21 10° SE visible
22 Dec 3.2 11:54:17 10° SW 11:56:27 14° SSW 11:58:36 10° S visible
23 Dec 2.9 10:06:36 20° SSE 10:06:36 20° SSE 10:08:34 10° SE visible
23 Dec 3.2 11:44:25 10° SW 11:45:43 11° SSW 11:47:02 10° S visible
24 Dec 3.3 09:56:39 15° SSE 09:56:39 15° SSE 09:57:44 10° SE visible
